| time (UTC) | temp C | wind direction | speed KPH | gust KPH | rain 1hr cm | rain 24hr cm | rain mn cm | humidity % | barometer mb |
| 20260906193406 | 26 | 272 | 3.2 | 4.8 | 0.00 | 0.00 | 0.00 | 58 | 1016.2 |
| 20260906192903 | 26 | 199 | 3.2 | 6.4 | 0.00 | 0.00 | 0.00 | 55 | 1016.1 |
| 20260906192402 | 26 | 337 | 9.7 | 12.9 | 0.00 | 0.00 | 0.00 | 54 | 1016.1 |
| 20260906191901 | 26 | 245 | 3.2 | 3.2 | 0.00 | 0.00 | 0.00 | 56 | 1016.2 |
| 20260906191356 | 27 | 303 | 3.2 | 4.8 | 0.00 | 0.00 | 0.00 | 54 | 1016.1 |
| 20260906190855 | 26 | 156 | 8.0 | 9.7 | 0.00 | 0.00 | 0.00 | 54 | 1016.2 |
| 20260906190350 | 27 | 168 | 4.8 | 11.3 | 0.00 | 0.00 | 0.00 | 52 | 1016.2 |
| 20260906185850 | 26 | 19 | 6.4 | 11.3 | 0.00 | 0.00 | 0.00 | 57 | 1016.3 |
| 20260906185349 | 26 | 257 | 3.2 | 4.8 | 0.00 | 0.00 | 0.00 | 56 | 1016.4 |
| 20260906184848 | 27 | 48 | 6.4 | 6.4 | 0.00 | 0.00 | 0.00 | 57 | 1016.3 |
| 20260906184343 | 27 | 197 | 4.8 | 4.8 | 0.00 | 0.00 | 0.00 | 52 | 1016.3 |
| 20260906183839 | 27 | 331 | 4.8 | 4.8 | 0.00 | 0.00 | 0.00 | 52 | 1016.3 |
| 20260906183336 | 26 | 247 | 1.6 | 3.2 | 0.00 | 0.00 | 0.00 | 54 | 1016.1 |
| 20260906182835 | 26 | 187 | 3.2 | 4.8 | 0.00 | 0.00 | 0.00 | 56 | 1016.4 |
| 20260906182331 | 26 | 331 | 6.4 | 6.4 | 0.00 | 0.00 | 0.00 | 56 | 1016.4 |
| 20260906181831 | 27 | 229 | 3.2 | 3.2 | 0.00 | 0.00 | 0.00 | 57 | 1016.3 |
| 20260906181328 | 26 | 222 | 0.0 | 1.6 | 0.00 | 0.00 | 0.00 | 56 | 1016.4 |
| 20260906180823 | 25 | 205 | 0.0 | 0.0 | 0.00 | 0.00 | 0.00 | 58 | 1016.5 |
| 20260906180318 | 26 | 136 | 8.0 | 12.9 | 0.00 | 0.00 | 0.00 | 56 | 1016.5 |
| 20260906175815 | 26 | 208 | 1.6 | 3.2 | 0.00 | 0.00 | 0.00 | 57 | 1016.6 |
| 20260906175311 | 26 | 163 | 3.2 | 3.2 | 0.00 | 0.00 | 0.00 | 58 | 1016.6 |
| 20260906174810 | 26 | 353 | 4.8 | 9.7 | 0.00 | 0.00 | 0.00 | 56 | 1016.5 |
| 20260906174309 | 25 | 224 | 3.2 | 3.2 | 0.00 | 0.00 | 0.00 | 58 | 1016.8 |
| 20260906173804 | 26 | 207 | 4.8 | 6.4 | 0.00 | 0.00 | 0.00 | 60 | 1016.6 |
| 20260906173300 | 26 | 295 | 6.4 | 6.4 | 0.00 | 0.00 | 0.00 | 56 | 1016.6 |
| 20260906172759 | 26 | 351 | 9.7 | 14.5 | 0.00 | 0.00 | 0.00 | 53 | 1016.4 |
| 20260906172255 | 26 | 206 | 0.0 | 1.6 | 0.00 | 0.00 | 0.00 | 58 | 1016.7 |
| 20260906171750 | 26 | 329 | 8.0 | 9.7 | 0.00 | 0.00 | 0.00 | 57 | 1016.7 |
| 20260906171245 | 26 | 162 | 3.2 | 4.8 | 0.00 | 0.00 | 0.00 | 55 | 1016.8 |
| 20260906170741 | 26 | 145 | 3.2 | 3.2 | 0.00 | 0.00 | 0.00 | 60 | 1016.6 |
| 20260906170236 | 26 | 290 | 3.2 | 4.8 | 0.00 | 0.00 | 0.00 | 60 | 1016.7 |
| 20260906165732 | 26 | 169 | 3.2 | 4.8 | 0.00 | 0.00 | 0.00 | 60 | 1016.7 |
| 20260906165227 | 25 | 247 | 4.8 | 4.8 | 0.00 | 0.00 | 0.00 | 59 | 1016.7 |
| 20260906164726 | 25 | 315 | 3.2 | 4.8 | 0.00 | 0.00 | 0.00 | 63 | 1016.9 |
| 20260906164227 | 26 | 235 | 3.2 | 4.8 | 0.00 | 0.00 | 0.00 | 64 | 1016.7 |
| 20260906163723 | 25 | 293 | 4.8 | 6.4 | 0.00 | 0.00 | 0.00 | 60 | 1016.8 |
| 20260906163219 | 26 | 303 | 3.2 | 4.8 | 0.00 | 0.00 | 0.00 | 64 | 1016.9 |
| 20260906162715 | 25 | 219 | 3.2 | 4.8 | 0.00 | 0.00 | 0.00 | 66 | 1017.0 |
| 20260906162210 | 25 | 175 | 1.6 | 1.6 | 0.00 | 0.00 | 0.00 | 66 | 1017.0 |
| 20260906161704 | 25 | 114 | 3.2 | 3.2 | 0.00 | 0.00 | 0.00 | 62 | 1017.2 |
| 20260906161204 | 25 | 41 | 3.2 | 3.2 | 0.00 | 0.00 | 0.00 | 63 | 1017.3 |
| 20260906160703 | 25 | 193 | 3.2 | 4.8 | 0.00 | 0.00 | 0.00 | 63 | 1017.3 |
| 20260906160202 | 25 | 334 | 4.8 | 6.4 | 0.00 | 0.00 | 0.00 | 63 | 1017.1 |
| 20260906155700 | 25 | 307 | 4.8 | 4.8 | 0.00 | 0.00 | 0.00 | 63 | 1017.1 |
| 20260906155155 | 25 | 358 | 4.8 | 4.8 | 0.00 | 0.00 | 0.00 | 66 | 1017.1 |
| 20260906154650 | 25 | 261 | 3.2 | 4.8 | 0.00 | 0.00 | 0.00 | 61 | 1017.1 |
| 20260906154145 | 25 | 186 | 1.6 | 3.2 | 0.00 | 0.00 | 0.00 | 69 | 1017.1 |
| 20260906153644 | 24 | 291 | 3.2 | 4.8 | 0.00 | 0.00 | 0.00 | 67 | 1017.2 |
| 20260906153139 | 24 | 347 | 6.4 | 11.3 | 0.00 | 0.00 | 0.00 | 67 | 1017.1 |
| 20260906152638 | 25 | 28 | 6.4 | 9.7 | 0.00 | 0.00 | 0.00 | 65 | 1017.1 |
| 20260906152132 | 23 | 169 | 3.2 | 4.8 | 0.00 | 0.00 | 0.00 | 70 | 1017.2 |
| 20260906151627 | 23 | 357 | 8.0 | 9.7 | 0.00 | 0.00 | 0.00 | 67 | 1017.1 |
| 20260906151124 | 23 | 290 | 3.2 | 4.8 | 0.00 | 0.00 | 0.00 | 67 | 1017.3 |
| 20260906150618 | 23 | 358 | 8.0 | 9.7 | 0.00 | 0.00 | 0.00 | 68 | 1017.3 |
| 20260906150114 | 23 | 184 | 1.6 | 3.2 | 0.00 | 0.00 | 0.00 | 69 | 1017.4 |
| 20260906145613 | 23 | 345 | 3.2 | 4.8 | 0.00 | 0.00 | 0.00 | 69 | 1017.3 |
| 20260906145107 | 23 | 257 | 3.2 | 4.8 | 0.00 | 0.00 | 0.00 | 70 | 1017.2 |
| 20260906144602 | 23 | 282 | 6.4 | 6.4 | 0.00 | 0.00 | 0.00 | 72 | 1017.3 |
| 20260906144057 | 23 | 112 | 1.6 | 3.2 | 0.00 | 0.00 | 0.00 | 70 | 1017.2 |
| 20260906143552 | 22 | 184 | 1.6 | 3.2 | 0.00 | 0.00 | 0.00 | 71 | 1017.3 |
| 20260906143049 | 22 | 226 | 3.2 | 3.2 | 0.00 | 0.00 | 0.00 | 73 | 1017.2 |
| 20260906142548 | 22 | 339 | 3.2 | 4.8 | 0.00 | 0.00 | 0.00 | 73 | 1017.1 |
| 20260906142044 | 22 | 179 | 1.6 | 3.2 | 0.00 | 0.00 | 0.00 | 72 | 1016.9 |
| 20260906141542 | 22 | 310 | 6.4 | 6.4 | 0.00 | 0.00 | 0.00 | 73 | 1017.0 |
| 20260906141038 | 22 | 202 | 0.0 | 1.6 | 0.00 | 0.00 | 0.00 | 75 | 1017.1 |
| 20260906140537 | 21 | 4 | 4.8 | 4.8 | 0.00 | 0.00 | 0.00 | 75 | 1017.1 |
| 20260906140037 | 21 | 332 | 8.0 | 9.7 | 0.00 | 0.00 | 0.00 | 76 | 1016.8 |
| 20260906135534 | 21 | 172 | 1.6 | 3.2 | 0.00 | 0.00 | 0.00 | 77 | 1017.0 |
| 20260906135030 | 21 | 178 | 3.2 | 3.2 | 0.00 | 0.00 | 0.00 | 78 | 1016.8 |
| 20260906134525 | 21 | 163 | 1.6 | 3.2 | 0.00 | 0.00 | 0.00 | 79 | 1016.8 |
| 20260906134019 | 20 | 236 | 3.2 | 4.8 | 0.00 | 0.00 | 0.00 | 78 | 1016.9 |
| 20260906133516 | 20 | 154 | 1.6 | 3.2 | 0.00 | 0.00 | 0.00 | 79 | 1016.7 |
| 20260906133011 | 20 | 140 | 0.0 | 1.6 | 0.00 | 0.00 | 0.00 | 80 | 1016.8 |
| 20260906132506 | 20 | 33 | 3.2 | 4.8 | 0.00 | 0.00 | 0.00 | 79 | 1016.9 |
| 20260906132001 | 20 | 223 | 3.2 | 4.8 | 0.00 | 0.00 | 0.00 | 81 | 1016.6 |
| 20260906131456 | 20 | 356 | 4.8 | 6.4 | 0.00 | 0.00 | 0.00 | 80 | 1016.7 |
| 20260906130952 | 20 | 357 | 4.8 | 6.4 | 0.00 | 0.00 | 0.00 | 80 | 1016.8 |
| 20260906130451 | 19 | 344 | 6.4 | 6.4 | 0.00 | 0.00 | 0.00 | 81 | 1016.9 |
| 20260906125946 | 19 | 199 | 3.2 | 3.2 | 0.00 | 0.00 | 0.00 | 81 | 1016.9 |
| 20260906125444 | 19 | 176 | 4.8 | 4.8 | 0.00 | 0.00 | 0.00 | 81 | 1016.9 |
| 20260906124943 | 19 | 352 | 4.8 | 4.8 | 0.00 | 0.00 | 0.00 | 82 | 1016.5 |
| 20260906124439 | 18 | 178 | 1.6 | 1.6 | 0.00 | 0.00 | 0.00 | 83 | 1016.6 |
| 20260906123938 | 18 | 216 | 3.2 | 3.2 | 0.00 | 0.00 | 0.00 | 84 | 1016.6 |
| 20260906123433 | 18 | 150 | 1.6 | 1.6 | 0.00 | 0.00 | 0.00 | 84 | 1016.5 |
| 20260906122932 | 18 | 242 | 1.6 | 3.2 | 0.00 | 0.00 | 0.00 | 85 | 1016.3 |
| 20260906122427 | 18 | 293 | 3.2 | 4.8 | 0.00 | 0.00 | 0.00 | 86 | 1016.2 |
| 20260906121924 | 18 | 246 | 3.2 | 3.2 | 0.00 | 0.00 | 0.00 | 86 | 1016.2 |
| 20260906121420 | 18 | 30 | 4.8 | 6.4 | 0.00 | 0.00 | 0.00 | 86 | 1016.3 |
| 20260906120917 | 18 | 168 | 1.6 | 1.6 | 0.00 | 0.00 | 0.00 | 87 | 1016.1 |
| 20260906120412 | 18 | 186 | 1.6 | 1.6 | 0.00 | 0.00 | 0.00 | 88 | 1016.1 |
| 20260906115907 | 17 | 202 | 0.0 | 0.0 | 0.00 | 0.00 | 0.00 | 88 | 1015.8 |
| 20260906115403 | 17 | 173 | 0.0 | 0.0 | 0.00 | 0.00 | 0.00 | 88 | 1015.9 |
| 20260906114902 | 17 | 139 | 1.6 | 1.6 | 0.00 | 0.00 | 0.00 | 89 | 1015.9 |
| 20260906114357 | 17 | 137 | 3.2 | 3.2 | 0.00 | 0.00 | 0.00 | 89 | 1015.9 |
| 20260906113853 | 17 | 199 | 0.0 | 0.0 | 0.00 | 0.00 | 0.00 | 89 | 1015.8 |
| 20260906113352 | 17 | 211 | 1.6 | 1.6 | 0.00 | 0.00 | 0.00 | 88 | 1015.7 |
| 20260906112848 | 18 | 258 | 3.2 | 3.2 | 0.00 | 0.00 | 0.00 | 88 | 1015.7 |
| 20260906112344 | 18 | 48 | 6.4 | 6.4 | 0.00 | 0.00 | 0.00 | 89 | 1015.5 |
| 20260906111844 | 18 | 10 | 6.4 | 6.4 | 0.00 | 0.00 | 0.00 | 89 | 1015.4 |
| 20260906111343 | 18 | 239 | 3.2 | 3.2 | 0.00 | 0.00 | 0.00 | 89 | 1015.3 |
| 20260906110838 | 18 | 132 | 1.6 | 1.6 | 0.00 | 0.00 | 0.00 | 88 | 1015.4 |
| 20260906110334 | 18 | 323 | 3.2 | 3.2 | 0.00 | 0.00 | 0.00 | 89 | 1015.3 |
| 20260906105833 | 18 | 206 | 1.6 | 3.2 | 0.00 | 0.00 | 0.00 | 89 | 1015.1 |
| 20260906105329 | 18 | 247 | 3.2 | 3.2 | 0.00 | 0.00 | 0.00 | 89 | 1015.2 |
| 20260906104824 | 18 | 201 | 1.6 | 1.6 | 0.00 | 0.00 | 0.00 | 90 | 1015.0 |
| 20260906104323 | 18 | 159 | 1.6 | 1.6 | 0.00 | 0.00 | 0.00 | 89 | 1015.3 |
| 20260906103822 | 18 | 243 | 1.6 | 3.2 | 0.00 | 0.00 | 0.00 | 90 | 1015.3 |
| 20260906103320 | 18 | 153 | 1.6 | 1.6 | 0.00 | 0.00 | 0.00 | 90 | 1015.1 |
| 20260906102816 | 18 | 193 | 3.2 | 4.8 | 0.00 | 0.00 | 0.00 | 90 | 1015.3 |
| 20260906102315 | 18 | 236 | 1.6 | 3.2 | 0.00 | 0.00 | 0.00 | 91 | 1015.1 |
| 20260906101811 | 18 | 190 | 1.6 | 1.6 | 0.00 | 0.00 | 0.00 | 92 | 1015.3 |
| 20260906101306 | 18 | 210 | 0.0 | 0.0 | 0.00 | 0.00 | 0.00 | 92 | 1015.1 |
| 20260906100801 | 18 | 199 | 0.0 | 0.0 | 0.00 | 0.00 | 0.00 | 92 | 1015.0 |
| 20260906100300 | 18 | 199 | 0.0 | 1.6 | 0.00 | 0.00 | 0.00 | 91 | 1014.9 |
| 20260906095756 | 18 | 154 | 3.2 | 3.2 | 0.00 | 0.00 | 0.00 | 92 | 1014.8 |
| 20260906095251 | 18 | 208 | 1.6 | 1.6 | 0.00 | 0.00 | 0.00 | 92 | 1014.9 |
| 20260906094750 | 18 | 197 | 0.0 | 1.6 | 0.00 | 0.00 | 0.00 | 93 | 1014.9 |
| 20260906094245 | 18 | 203 | 0.0 | 1.6 | 0.00 | 0.00 | 0.00 | 93 | 1014.8 |
| 20260906093741 | 18 | 193 | 0.0 | 0.0 | 0.00 | 0.00 | 0.00 | 93 | 1014.7 |
| 20260906093237 | 18 | 220 | 1.6 | 1.6 | 0.00 | 0.00 | 0.00 | 93 | 1014.5 |
| 20260906092732 | 18 | 197 | 0.0 | 0.0 | 0.00 | 0.00 | 0.00 | 94 | 1014.5 |
| 20260906092232 | 18 | 193 | 0.0 | 1.6 | 0.00 | 0.00 | 0.00 | 94 | 1014.7 |
| 20260906091728 | 18 | 185 | 0.0 | 0.0 | 0.00 | 0.00 | 0.00 | 94 | 1014.5 |
| 20260906091224 | 18 | 195 | 0.0 | 0.0 | 0.00 | 0.00 | 0.00 | 93 | 1014.4 |
| 20260906090720 | 18 | 197 | 0.0 | 0.0 | 0.00 | 0.00 | 0.00 | 93 | 1014.8 |
| 20260906090219 | 18 | 185 | 0.0 | 0.0 | 0.00 | 0.00 | 0.00 | 92 | 1014.5 |
| 20260906085718 | 18 | 205 | 0.0 | 1.6 | 0.00 | 0.00 | 0.00 | 92 | 1014.5 |
| 20260906085218 | 19 | 202 | 0.0 | 0.0 | 0.00 | 0.00 | 0.00 | 92 | 1014.7 |
| 20260906084713 | 19 | 198 | 0.0 | 0.0 | 0.00 | 0.00 | 0.00 | 92 | 1014.7 |
| 20260906084212 | 19 | 187 | 1.6 | 1.6 | 0.00 | 0.00 | 0.00 | 92 | 1014.7 |
| 20260906083708 | 19 | 189 | 0.0 | 0.0 | 0.00 | 0.00 | 0.00 | 92 | 1014.7 |
| 20260906083203 | 19 | 194 | 0.0 | 0.0 | 0.00 | 0.00 | 0.00 | 93 | 1014.4 |
| 20260906082658 | 20 | 201 | 0.0 | 1.6 | 0.00 | 0.00 | 0.00 | 92 | 1014.4 |
| 20260906082153 | 20 | 209 | 1.6 | 1.6 | 0.00 | 0.00 | 0.00 | 92 | 1014.5 |
| 20260906081649 | 20 | 208 | 1.6 | 1.6 | 0.00 | 0.00 | 0.00 | 93 | 1014.7 |
| 20260906081143 | 20 | 197 | 0.0 | 0.0 | 0.00 | 0.00 | 0.00 | 94 | 1014.4 |
| 20260906080640 | 20 | 200 | 0.0 | 0.0 | 0.00 | 0.00 | 0.00 | 95 | 1014.5 |
| 20260906080136 | 20 | 193 | 0.0 | 0.0 | 0.00 | 0.00 | 0.00 | 97 | 1014.4 |
| 20260906075635 | 20 | 198 | 1.6 | 1.6 | 0.00 | 0.00 | 0.00 | 98 | 1014.5 |
| 20260906075130 | 20 | 185 | 0.0 | 0.0 | 0.00 | 0.00 | 0.00 | 98 | 1014.3 |
| 20260906074626 | 20 | 173 | 1.6 | 1.6 | 0.00 | 0.00 | 0.00 | 99 | 1014.4 |
| 20260906074124 | 20 | 207 | 1.6 | 1.6 | 0.00 | 0.00 | 0.00 | 99 | 1014.5 |
| 20260906073619 | 20 | 203 | 0.0 | 0.0 | 0.00 | 0.00 | 0.00 | 99 | 1014.8 |
| 20260906073115 | 20 | 217 | 1.6 | 1.6 | 0.00 | 0.00 | 0.00 | 99 | 1014.5 |
| 20260906072610 | 20 | 208 | 0.0 | 1.6 | 0.00 | 0.00 | 0.00 | 99 | 1014.7 |
| 20260906072107 | 20 | 208 | 0.0 | 0.0 | 0.00 | 0.00 | 0.00 | 99 | 1014.7 |
| 20260906071603 | 20 | 204 | 0.0 | 0.0 | 0.00 | 0.00 | 0.00 | 99 | 1014.4 |
| 20260906071103 | 20 | 204 | 0.0 | 0.0 | 0.00 | 0.00 | 0.00 | 99 | 1014.4 |
| 20260906070559 | 20 | 201 | 0.0 | 0.0 | 0.00 | 0.00 | 0.00 | 99 | 1014.4 |
| 20260906070054 | 20 | 200 | 0.0 | 1.6 | 0.00 | 0.00 | 0.00 | 99 | 1014.5 |
| 20260906065554 | 20 | 200 | 0.0 | 1.6 | 0.00 | 0.00 | 0.00 | 99 | 1014.5 |
| 20260906065050 | 20 | 195 | 0.0 | 0.0 | 0.00 | 0.00 | 0.00 | 99 | 1014.5 |
| 20260906064545 | 20 | 196 | 0.0 | 0.0 | 0.00 | 0.00 | 0.00 | 99 | 1014.4 |
| 20260906064040 | 20 | 196 | 0.0 | 0.0 | 0.00 | 0.00 | 0.00 | 99 | 1014.5 |
| 20260906063535 | 20 | 195 | 0.0 | 0.0 | 0.00 | 0.00 | 0.00 | 99 | 1014.4 |
| 20260906063032 | 20 | 195 | 0.0 | 0.0 | 0.00 | 0.00 | 0.00 | 99 | 1014.4 |
| 20260906062527 | 20 | 190 | 1.6 | 1.6 | 0.00 | 0.00 | 0.00 | 99 | 1014.4 |
| 20260906062021 | 20 | 184 | 0.0 | 0.0 | 0.00 | 0.00 | 0.00 | 99 | 1014.5 |
| 20260906061517 | 20 | 193 | 0.0 | 0.0 | 0.00 | 0.00 | 0.00 | 99 | 1014.5 |
| 20260906061016 | 20 | 192 | 0.0 | 1.6 | 0.00 | 0.00 | 0.00 | 99 | 1014.4 |
| 20260906060513 | 20 | 199 | 0.0 | 0.0 | 0.00 | 0.00 | 0.00 | 99 | 1014.5 |
| 20260906060010 | 20 | 199 | 0.0 | 0.0 | 0.00 | 0.00 | 0.00 | 99 | 1014.7 |
| 20260906055505 | 20 | 199 | 0.0 | 0.0 | 0.00 | 0.00 | 0.00 | 99 | 1014.7 |
| 20260906055001 | 20 | 199 | 0.0 | 0.0 | 0.00 | 0.00 | 0.00 | 99 | 1014.5 |
| 20260906054500 | 20 | 199 | 0.0 | 0.0 | 0.00 | 0.00 | 0.00 | 99 | 1014.4 |
| 20260906053956 | 20 | 199 | 0.0 | 0.0 | 0.00 | 0.00 | 0.00 | 99 | 1014.2 |
| 20260906053452 | 21 | 199 | 0.0 | 0.0 | 0.00 | 0.00 | 0.00 | 99 | 1014.4 |
| 20260906052948 | 21 | 199 | 0.0 | 0.0 | 0.00 | 0.00 | 0.00 | 99 | 1014.3 |
| 20260906052444 | 21 | 199 | 0.0 | 0.0 | 0.00 | 0.00 | 0.00 | 99 | 1014.1 |
| 20260906051940 | 21 | 199 | 0.0 | 0.0 | 0.00 | 0.00 | 0.00 | 99 | 1014.2 |
| 20260906051435 | 21 | 199 | 0.0 | 0.0 | 0.00 | 0.00 | 0.00 | 99 | 1014.1 |
| 20260906050931 | 21 | 199 | 0.0 | 0.0 | 0.00 | 0.00 | 0.00 | 99 | 1014.2 |
| 20260906050431 | 21 | 199 | 0.0 | 0.0 | 0.00 | 0.00 | 0.00 | 99 | 1014.3 |
| 20260906045930 | 21 | 199 | 0.0 | 0.0 | 0.00 | 0.00 | 0.00 | 99 | 1014.2 |
| 20260906045429 | 21 | 199 | 0.0 | 0.0 | 0.00 | 0.00 | 0.00 | 99 | 1014.2 |
| 20260906044926 | 20 | 199 | 0.0 | 0.0 | 0.00 | 0.00 | 0.00 | 99 | 1014.1 |
| 20260906044425 | 21 | 199 | 0.0 | 0.0 | 0.00 | 0.00 | 0.00 | 99 | 1014.0 |
| 20260906043921 | 21 | 199 | 0.0 | 0.0 | 0.00 | 0.00 | 0.00 | 99 | 1014.1 |
| 20260906043417 | 21 | 199 | 0.0 | 0.0 | 0.00 | 0.00 | 0.00 | 99 | 1014.0 |
| 20260906042913 | 21 | 199 | 0.0 | 0.0 | 0.00 | 0.00 | 0.00 | 99 | 1014.0 |
| 20260906042412 | 21 | 199 | 0.0 | 0.0 | 0.00 | 0.00 | 0.00 | 99 | 1014.1 |
| 20260906041907 | 21 | 199 | 0.0 | 0.0 | 0.00 | 0.00 | 0.00 | 99 | 1014.1 |
| 20260906041403 | 21 | 199 | 0.0 | 0.0 | 0.00 | 0.00 | 0.00 | 99 | 1013.9 |
| 20260906040902 | 21 | 199 | 0.0 | 0.0 | 0.00 | 0.00 | 0.00 | 99 | 1013.9 |
| 20260906040358 | 21 | 199 | 0.0 | 0.0 | 0.00 | 0.00 | 0.00 | 99 | 1014.0 |
| 20260906035854 | 21 | 199 | 0.0 | 0.0 | 0.00 | 3.28 | 3.28 | 99 | 1014.0 |
| 20260906035349 | 21 | 199 | 0.0 | 0.0 | 0.00 | 3.28 | 3.28 | 99 | 1013.9 |
| 20260906034844 | 21 | 199 | 0.0 | 0.0 | 0.00 | 3.28 | 3.28 | 99 | 1013.9 |
| 20260906034344 | 21 | 199 | 0.0 | 0.0 | 0.00 | 3.28 | 3.28 | 99 | 1014.0 |
| 20260906033840 | 21 | 199 | 0.0 | 0.0 | 0.00 | 3.28 | 3.28 | 99 | 1013.8 |
| 20260906033339 | 21 | 199 | 0.0 | 0.0 | 0.00 | 3.28 | 3.28 | 99 | 1014.0 |
| 20260906032835 | 21 | 199 | 0.0 | 0.0 | 0.00 | 3.28 | 3.28 | 99 | 1013.9 |
| 20260906032331 | 21 | 199 | 0.0 | 0.0 | 0.00 | 3.28 | 3.28 | 99 | 1013.9 |
| 20260906031826 | 21 | 199 | 0.0 | 0.0 | 0.00 | 3.28 | 3.28 | 99 | 1014.1 |
| 20260906031321 | 21 | 199 | 0.0 | 0.0 | 0.00 | 3.28 | 3.28 | 99 | 1014.0 |
| 20260906030821 | 21 | 199 | 0.0 | 0.0 | 0.00 | 3.28 | 3.28 | 99 | 1014.0 |
| 20260906030316 | 21 | 199 | 0.0 | 0.0 | 0.00 | 3.28 | 3.28 | 99 | 1014.1 |
| 20260906025811 | 21 | 199 | 0.0 | 0.0 | 0.00 | 3.28 | 3.28 | 99 | 1014.1 |
| 20260906025306 | 21 | 199 | 0.0 | 0.0 | 0.00 | 3.28 | 3.28 | 99 | 1014.2 |
| 20260906024804 | 21 | 199 | 0.0 | 0.0 | 0.00 | 3.28 | 3.28 | 99 | 1014.2 |
| 20260906024303 | 21 | 209 | 0.0 | 0.0 | 0.00 | 3.28 | 3.28 | 99 | 1014.4 |
| 20260906023759 | 21 | 209 | 0.0 | 0.0 | 0.00 | 3.28 | 3.28 | 99 | 1014.3 |
| 20260906023254 | 21 | 209 | 0.0 | 0.0 | 0.00 | 3.28 | 3.28 | 99 | 1014.3 |
| 20260906022749 | 21 | 209 | 0.0 | 0.0 | 0.00 | 3.28 | 3.28 | 99 | 1014.2 |
| 20260906022244 | 21 | 209 | 0.0 | 0.0 | 0.00 | 3.28 | 3.28 | 99 | 1014.3 |
| 20260906021741 | 21 | 209 | 0.0 | 0.0 | 0.00 | 3.28 | 3.28 | 99 | 1014.2 |
| 20260906021240 | 21 | 209 | 0.0 | 0.0 | 0.00 | 3.28 | 3.28 | 99 | 1014.3 |
| 20260906020735 | 21 | 209 | 0.0 | 0.0 | 0.00 | 3.28 | 3.28 | 99 | 1014.3 |
| 20260906020234 | 21 | 209 | 0.0 | 0.0 | 0.00 | 3.28 | 3.28 | 99 | 1014.0 |
| 20260906015729 | 21 | 209 | 0.0 | 0.0 | 0.00 | 3.28 | 3.28 | 99 | 1013.9 |
| 20260906015227 | 22 | 209 | 0.0 | 0.0 | 0.00 | 3.28 | 3.28 | 99 | 1013.8 |
| 20260906014722 | 22 | 209 | 0.0 | 0.0 | 0.00 | 3.28 | 3.28 | 99 | 1013.8 |
| 20260906014218 | 22 | 209 | 0.0 | 0.0 | 0.00 | 3.28 | 3.28 | 99 | 1013.7 |
| 20260906013714 | 22 | 209 | 0.0 | 0.0 | 0.00 | 3.28 | 3.28 | 99 | 1013.4 |
| 20260906013214 | 22 | 209 | 0.0 | 0.0 | 0.00 | 3.28 | 3.28 | 99 | 1013.5 |
| 20260906012710 | 22 | 209 | 0.0 | 0.0 | 0.00 | 3.28 | 3.28 | 99 | 1013.4 |
| 20260906012210 | 22 | 209 | 0.0 | 0.0 | 0.00 | 3.28 | 3.28 | 99 | 1013.4 |
| 20260906011705 | 22 | 209 | 0.0 | 0.0 | 0.00 | 3.28 | 3.28 | 99 | 1013.4 |
| 20260906011159 | 22 | 209 | 0.0 | 0.0 | 0.00 | 3.28 | 3.28 | 99 | 1013.3 |
| 20260906010655 | 22 | 209 | 0.0 | 0.0 | 0.00 | 3.28 | 3.28 | 99 | 1013.3 |
| 20260906010151 | 22 | 209 | 0.0 | 0.0 | 0.00 | 3.28 | 3.28 | 99 | 1013.2 |
| 20260906005650 | 22 | 209 | 0.0 | 0.0 | 0.00 | 3.28 | 3.28 | 99 | 1013.0 |
| 20260906005150 | 22 | 209 | 0.0 | 0.0 | 0.00 | 3.28 | 3.28 | 98 | 1013.2 |
| 20260906004649 | 22 | 209 | 0.0 | 0.0 | 0.00 | 3.28 | 3.28 | 98 | 1013.0 |
| 20260906004144 | 22 | 209 | 0.0 | 0.0 | 0.00 | 3.28 | 3.28 | 98 | 1012.8 |
| 20260906003639 | 22 | 209 | 0.0 | 0.0 | 0.00 | 3.28 | 3.28 | 98 | 1012.7 |
| 20260906003135 | 23 | 209 | 0.0 | 0.0 | 0.00 | 3.28 | 3.28 | 98 | 1013.0 |
| 20260906002630 | 23 | 209 | 0.0 | 0.0 | 0.00 | 3.28 | 3.28 | 98 | 1012.9 |
| 20260906002125 | 23 | 209 | 0.0 | 0.0 | 0.00 | 3.28 | 3.28 | 98 | 1012.7 |
| 20260906001620 | 23 | 209 | 0.0 | 0.0 | 0.00 | 3.28 | 3.28 | 98 | 1013.0 |
| 20260906001119 | 23 | 209 | 0.0 | 0.0 | 0.00 | 3.28 | 3.28 | 97 | 1013.1 |
| 20260906000616 | 23 | 209 | 0.0 | 0.0 | 0.00 | 3.28 | 3.28 | 97 | 1012.9 |
| 20260906000111 | 23 | 209 | 0.0 | 0.0 | 0.00 | 3.28 | 3.28 | 97 | 1013.0 |
| 20260905235610 | 23 | 209 | 0.0 | 0.0 | 0.00 | 3.28 | 3.28 | 96 | 1012.9 |
| 20260905235105 | 23 | 209 | 0.0 | 0.0 | 0.00 | 3.28 | 3.28 | 96 | 1012.9 |
| 20260905234600 | 23 | 209 | 0.0 | 0.0 | 0.00 | 3.28 | 3.28 | 96 | 1012.7 |
| 20260905234055 | 23 | 209 | 0.0 | 0.0 | 0.00 | 3.28 | 3.28 | 95 | 1012.8 |
| 20260905233555 | 23 | 209 | 0.0 | 0.0 | 0.00 | 3.28 | 3.28 | 95 | 1012.8 |
| 20260905233050 | 24 | 209 | 0.0 | 0.0 | 0.00 | 3.28 | 3.28 | 95 | 1012.9 |
| 20260905232545 | 24 | 209 | 0.0 | 0.0 | 0.00 | 3.28 | 3.28 | 94 | 1013.0 |
| 20260905232041 | 24 | 209 | 0.0 | 0.0 | 0.00 | 3.28 | 3.28 | 94 | 1012.8 |
| 20260905231536 | 25 | 209 | 0.0 | 0.0 | 0.00 | 3.28 | 3.28 | 94 | 1012.7 |
| 20260905231032 | 25 | 209 | 0.0 | 0.0 | 0.00 | 3.28 | 3.28 | 93 | 1012.8 |
| 20260905230531 | 25 | 209 | 0.0 | 0.0 | 0.00 | 3.28 | 3.28 | 93 | 1012.8 |
| 20260905230030 | 25 | 209 | 0.0 | 0.0 | 0.00 | 3.28 | 3.28 | 92 | 1012.6 |
| 20260905225525 | 25 | 209 | 0.0 | 0.0 | 0.00 | 3.28 | 3.28 | 91 | 1012.7 |
| 20260905225020 | 25 | 209 | 0.0 | 0.0 | 0.00 | 3.28 | 3.28 | 89 | 1012.7 |
| 20260905224515 | 25 | 209 | 0.0 | 0.0 | 0.00 | 3.28 | 3.28 | 88 | 1012.7 |
| 20260905224014 | 25 | 209 | 0.0 | 0.0 | 0.00 | 3.28 | 3.28 | 88 | 1012.8 |
| 20260905223512 | 26 | 209 | 0.0 | 0.0 | 0.00 | 3.28 | 3.28 | 87 | 1012.7 |
| 20260905223008 | 26 | 209 | 0.0 | 0.0 | 0.00 | 3.28 | 3.28 | 87 | 1012.8 |
| 20260905222507 | 26 | 209 | 0.0 | 0.0 | 0.00 | 3.28 | 3.28 | 85 | 1012.6 |
| 20260905222003 | 26 | 209 | 0.0 | 0.0 | 0.00 | 3.28 | 3.28 | 85 | 1012.6 |
| 20260905221459 | 26 | 209 | 0.0 | 1.6 | 0.00 | 3.28 | 3.28 | 86 | 1012.6 |
| 20260905220955 | 26 | 209 | 0.0 | 1.6 | 0.00 | 3.28 | 3.28 | 85 | 1012.9 |
| 20260905220451 | 26 | 209 | 0.0 | 0.0 | 0.00 | 3.28 | 3.28 | 86 | 1012.7 |
| 20260905215950 | 27 | 207 | 0.0 | 0.0 | 0.00 | 3.28 | 3.28 | 84 | 1012.9 |
| 20260905215446 | 27 | 209 | 0.0 | 1.6 | 0.00 | 3.28 | 3.28 | 82 | 1012.8 |
| 20260905214942 | 26 | 208 | 0.0 | 0.0 | 0.00 | 3.28 | 3.28 | 84 | 1012.9 |
| 20260905214437 | 26 | 208 | 0.0 | 0.0 | 0.00 | 3.28 | 3.28 | 86 | 1012.8 |
| 20260905213937 | 26 | 208 | 0.0 | 0.0 | 0.00 | 3.28 | 3.28 | 85 | 1012.6 |
| 20260905213434 | 26 | 208 | 0.0 | 0.0 | 0.00 | 3.28 | 3.28 | 84 | 1012.9 |
| 20260905212929 | 26 | 208 | 0.0 | 0.0 | 0.00 | 3.28 | 3.28 | 85 | 1012.8 |
| 20260905212424 | 27 | 208 | 0.0 | 0.0 | 0.00 | 3.28 | 3.28 | 83 | 1012.8 |
| 20260905211922 | 27 | 208 | 0.0 | 0.0 | 0.00 | 3.28 | 3.28 | 82 | 1012.7 |
| 20260905211419 | 27 | 208 | 0.0 | 0.0 | 0.00 | 3.28 | 3.28 | 81 | 1012.7 |
| 20260905210915 | 27 | 208 | 0.0 | 0.0 | 0.00 | 3.28 | 3.28 | 82 | 1012.8 |
| 20260905210414 | 27 | 207 | 0.0 | 0.0 | 0.00 | 3.28 | 3.28 | 78 | 1012.8 |
| 20260905205914 | 27 | 208 | 0.0 | 0.0 | 0.00 | 3.28 | 3.28 | 83 | 1012.8 |
| 20260905205409 | 27 | 208 | 0.0 | 0.0 | 0.00 | 3.28 | 3.28 | 84 | 1012.6 |
| 20260905204908 | 27 | 208 | 0.0 | 0.0 | 0.00 | 3.28 | 3.28 | 84 | 1012.8 |
| 20260905204404 | 26 | 208 | 0.0 | 0.0 | 0.00 | 3.28 | 3.28 | 83 | 1012.8 |
| 20260905203903 | 26 | 208 | 0.0 | 0.0 | 0.00 | 3.28 | 3.28 | 81 | 1012.9 |
| 20260905203358 | 26 | 208 | 0.0 | 0.0 | 0.00 | 3.28 | 3.28 | 84 | 1013.0 |
| 20260905202854 | 27 | 208 | 1.6 | 1.6 | 0.00 | 3.28 | 3.28 | 80 | 1013.0 |
| 20260905202348 | 27 | 207 | 0.0 | 0.0 | 0.00 | 3.28 | 3.28 | 78 | 1013.1 |
| 20260905201844 | 28 | 207 | 0.0 | 0.0 | 0.00 | 3.28 | 3.28 | 75 | 1012.9 |
| 20260905201339 | 28 | 187 | 0.0 | 0.0 | 0.00 | 3.28 | 3.28 | 71 | 1012.9 |
| 20260905200833 | 29 | 171 | 1.6 | 1.6 | 0.00 | 3.28 | 3.28 | 67 | 1013.0 |
| 20260905200330 | 29 | 340 | 3.2 | 4.8 | 0.00 | 3.28 | 3.28 | 66 | 1013.0 |
| 20260905195828 | 29 | 208 | 0.0 | 1.6 | 0.00 | 3.28 | 3.28 | 68 | 1013.0 |
| 20260905195323 | 29 | 198 | 1.6 | 3.2 | 0.00 | 3.28 | 3.28 | 72 | 1013.2 |
| 20260905194819 | 28 | 178 | 3.2 | 3.2 | 0.00 | 3.28 | 3.28 | 70 | 1013.3 |
| 20260905194318 | 28 | 207 | 1.6 | 1.6 | 0.00 | 3.28 | 3.28 | 73 | 1013.2 |
| 20260905193817 | 28 | 204 | 0.0 | 1.6 | 0.00 | 3.28 | 3.28 | 71 | 1013.3 |